Clinton, NC

11:35 AM EDT on August 28, 2016 (GMT -0400)
Sampson County

Weather History for KCTZ - August, 2013

Change the Weather History Date:

Sunday, August 11, 2013

  Actual Average (KFAY) Record (KFAY)
Temperature  
Mean Temperature 84 °F 80 °F  
Max Temperature 96 °F 90 °F 100 °F (2009)
Min Temperature 71 °F 70 °F 60 °F (1927)
Degree Days  
Heating Degree Days 0 0  
Month to date heating degree days 0  
Since 1 June heating degree days 0  
Since 1 July heating degree days 0  
Cooling Degree Days 18 15  
Month to date cooling degree days 172  
Year to date cooling degree days 1359  
Since 1 June cooling degree days 1075  
Growing Degree Days 34 (Base 50)    
Moisture  
Dew Point 74 °F    
Average Humidity 80    
Maximum Humidity 100    
Minimum Humidity 46    
Precipitation  
Precipitation 0.00 in 0.19 in 2.00 in (1931)
Month to date precipitation 2.07  
Year to date precipitation 28.01  
Sea Level Pressure  
Sea Level Pressure 30.08 in    
Wind  
Wind Speed 2 mph (West)    
Max Wind Speed 12 mph    
Max Gust Speed -    
Visibility 9 miles    
Events      
T = Trace of Precipitation, MM = Missing Value Source: NWS Daily Summary

Daily Weather History Graph

Daily Weather History Graph

Search for Another Location

Airport or City:

Trip Planner

Search our weather history database for the weather conditions in past years. The results will help you decide how hot, cold, wet, or windy it might be!

Date:

Astronomy

Aug. 11, 2013 Rise Set
Actual Time 6:30 AM EDT 8:05 PM EDT
Civil Twilight 6:03 AM EDT 8:32 PM EDT
Nautical Twilight 5:31 AM EDT 9:05 PM EDT
Astronomical Twilight 4:56 AM EDT 9:39 PM EDT
Moon 11:02 AM EDT (8/11) 10:35 PM EDT (8/11)
Length of Visible Light 14h 29m
Length of Day
13h 35m
Waxing Crescent, 22% of the Moon is Illuminated
Aug 11
Waxing Crescent
Aug 14
First Quarter
Aug 20
Full
Aug 28
Last Quarter
Sep 5
New

Hourly Weather History & Observations

Time (EDT) Temp. Heat Index Dew Point Humidity Pressure Visibility Wind Dir Wind Speed Gust Speed Precip Events Conditions
12:15 AM 74.3 °F - 74.3 °F 100% 30.10 in 7.0 mi Calm Calm - N/A   Clear
12:35 AM 73.9 °F - 73.9 °F 100% 30.10 in 7.0 mi Calm Calm - N/A   Clear
12:55 AM 73.8 °F - 73.8 °F 100% 30.09 in 7.0 mi Calm Calm - N/A   Clear
1:15 AM 73.4 °F - 73.4 °F 100% 30.08 in 7.0 mi Calm Calm - N/A   Clear
1:35 AM 73.9 °F - 73.9 °F 100% 30.08 in 10.0 mi Calm Calm - N/A   Clear
1:55 AM 73.6 °F - 73.6 °F 100% 30.08 in 7.0 mi Calm Calm - N/A   Clear
2:15 AM 73.9 °F - 73.9 °F 100% 30.08 in 10.0 mi Calm Calm - N/A   Scattered Clouds
2:35 AM 73.4 °F - 73.4 °F 100% 30.08 in 7.0 mi Calm Calm - N/A   Scattered Clouds
2:55 AM 72.9 °F - 72.9 °F 100% 30.08 in 7.0 mi Calm Calm - N/A   Clear
3:15 AM 72.9 °F - 72.9 °F 100% 30.09 in 7.0 mi Calm Calm - N/A   Clear
3:35 AM 72.7 °F - 72.7 °F 100% 30.09 in 7.0 mi Calm Calm - N/A   Clear
3:55 AM 72.7 °F - 72.7 °F 100% 30.09 in 5.0 mi Calm Calm - N/A   Clear
4:15 AM 73.4 °F - 73.4 °F 100% 30.09 in 10.0 mi Calm Calm - N/A   Clear
4:35 AM 72.9 °F - 72.9 °F 100% 30.09 in 7.0 mi Calm Calm - N/A   Clear
4:55 AM 72.1 °F - 72.1 °F 100% 30.10 in 5.0 mi Calm Calm - N/A   Clear
5:15 AM 72.1 °F - 72.1 °F 100% 30.10 in 7.0 mi Calm Calm - N/A   Scattered Clouds
5:35 AM 72.0 °F - 72.0 °F 100% 30.10 in 7.0 mi Calm Calm - N/A   Scattered Clouds
5:55 AM 72.5 °F - 72.5 °F 100% 30.11 in 10.0 mi Calm Calm - N/A   Clear
6:15 AM 72.0 °F - 72.0 °F 100% 30.11 in 7.0 mi Calm Calm - N/A   Clear
6:35 AM 71.8 °F - 71.8 °F 100% 30.12 in 4.0 mi Calm Calm - N/A   Clear
6:55 AM 72.1 °F - 72.1 °F 100% 30.12 in 5.0 mi Calm Calm - N/A   Clear
7:15 AM 72.5 °F - 72.5 °F 100% 30.12 in 5.0 mi Calm Calm - N/A   Clear
7:35 AM 73.4 °F - 73.4 °F 100% 30.12 in 5.0 mi Calm Calm - N/A   Clear
7:55 AM 74.8 °F - 73.9 °F 97% 30.12 in 10.0 mi Calm Calm - N/A   Clear
8:15 AM 76.1 °F - 74.1 °F 94% 30.13 in 10.0 mi Calm Calm - N/A   Clear
8:35 AM 77.5 °F - 75.2 °F 92% 30.13 in 10.0 mi WSW 4.6 mph - N/A   Clear
8:55 AM 78.8 °F - 75.6 °F 90% 30.12 in 10.0 mi Calm Calm - N/A   Clear
9:15 AM 80.1 °F 85.5 °F 76.3 °F 88% 30.12 in 10.0 mi West 3.5 mph - N/A   Clear
9:35 AM 81.1 °F 87.8 °F 76.3 °F 85% 30.12 in 10.0 mi Calm Calm - N/A   Clear
9:55 AM 82.9 °F 91.5 °F 76.5 °F 81% 30.12 in 10.0 mi NW 3.5 mph - N/A   Clear
10:15 AM 84.7 °F 94.8 °F 77.0 °F 77% 30.12 in 10.0 mi Calm Calm - N/A   Clear
10:35 AM 86.2 °F 96.4 °F 76.1 °F 72% 30.12 in 10.0 mi West 5.8 mph - N/A   Clear
10:55 AM 87.1 °F 96.8 °F 75.6 °F 68% 30.12 in 10.0 mi NW 4.6 mph - N/A   Clear
11:15 AM 88.3 °F 98.4 °F 75.2 °F 65% 30.12 in 10.0 mi WNW 5.8 mph - N/A   Clear
11:35 AM 89.6 °F 100.4 °F 75.6 °F 63% 30.12 in 10.0 mi West 5.8 mph - N/A   Clear
11:55 AM 90.3 °F 101.6 °F 75.7 °F 62% 30.11 in 10.0 mi West 8.1 mph - N/A   Clear
12:15 PM 90.9 °F 102.4 °F 75.6 °F 61% 30.11 in 10.0 mi WSW 6.9 mph - N/A   Clear
12:35 PM 90.9 °F 101.8 °F 75.0 °F 60% 30.10 in 10.0 mi West 9.2 mph - N/A   Clear
12:55 PM 91.8 °F 102.8 °F 75.2 °F 58% 30.10 in 10.0 mi NW 4.6 mph - N/A   Clear
1:15 PM 92.8 °F 104.8 °F 75.7 °F 57% 30.09 in 10.0 mi West 6.9 mph - N/A   Clear
1:35 PM 93.4 °F 105.5 °F 75.4 °F 56% 30.08 in 10.0 mi WSW 9.2 mph - N/A   Clear
1:55 PM 93.9 °F 104.7 °F 74.3 °F 53% 30.07 in 10.0 mi WNW 8.1 mph - N/A   Clear
2:15 PM 94.5 °F 106.0 °F 75.0 °F 53% 30.06 in 10.0 mi WNW 5.8 mph - N/A   Scattered Clouds
2:35 PM 93.4 °F 104.1 °F 74.7 °F 54% 30.06 in 10.0 mi WSW 5.8 mph - N/A   Clear
2:55 PM 94.8 °F 106.2 °F 74.5 °F 52% 30.05 in 10.0 mi West 4.6 mph - N/A   Scattered Clouds
3:15 PM 95.7 °F 105.5 °F 73.0 °F 48% 30.04 in 10.0 mi West 11.5 mph - N/A   Mostly Cloudy
3:35 PM 96.3 °F 106.8 °F 73.4 °F 48% 30.04 in 10.0 mi SSW 8.1 mph - N/A   Scattered Clouds
3:55 PM 96.1 °F 107.1 °F 73.9 °F 49% 30.03 in 10.0 mi West 8.1 mph - N/A   Scattered Clouds
4:15 PM 94.8 °F 104.8 °F 73.8 °F 50% 30.03 in 10.0 mi West 6.9 mph - N/A   Scattered Clouds
4:35 PM 95.0 °F 105.2 °F 73.9 °F 50% 30.03 in 10.0 mi SW 3.5 mph - N/A   Clear
4:55 PM 95.2 °F 105.6 °F 73.9 °F 50% 30.02 in 10.0 mi SW 4.6 mph - N/A   Scattered Clouds
5:15 PM 94.6 °F 105.8 °F 74.3 °F 52% 30.02 in 10.0 mi SSW 4.6 mph - N/A   Scattered Clouds
5:35 PM 95.0 °F 104.5 °F 73.4 °F 49% 30.01 in 10.0 mi SW 4.6 mph - N/A   Clear
5:55 PM 95.7 °F 104.1 °F 72.0 °F 46% 30.02 in 10.0 mi SW 9.2 mph - N/A   Scattered Clouds
6:15 PM 86.2 °F 93.8 °F 73.8 °F 66% 30.04 in 10.0 mi North 9.2 mph - N/A   Mostly Cloudy
6:35 PM 83.8 °F 90.1 °F 73.2 °F 70% 30.04 in 10.0 mi North 4.6 mph - N/A   Mostly Cloudy
6:55 PM 82.4 °F 87.2 °F 71.6 °F 70% 30.04 in 10.0 mi North 3.5 mph - N/A   Mostly Cloudy
7:15 PM 82.0 °F 86.7 °F 71.8 °F 71% 30.04 in 10.0 mi West 3.5 mph - N/A   Scattered Clouds
7:35 PM 81.9 °F 87.3 °F 73.4 °F 75% 30.03 in 10.0 mi Calm Calm - N/A   Scattered Clouds
7:55 PM 81.3 °F 86.8 °F 73.8 °F 78% 30.03 in 10.0 mi Calm Calm - N/A   Scattered Clouds
8:15 PM 80.6 °F 85.5 °F 73.8 °F 80% 30.05 in 10.0 mi Calm Calm - N/A   Scattered Clouds
8:35 PM 80.6 °F 85.4 °F 73.6 °F 79% 30.05 in 10.0 mi Calm Calm - N/A   Scattered Clouds
8:55 PM 79.7 °F - 73.6 °F 81% 30.04 in 10.0 mi Calm Calm - N/A   Clear
9:15 PM 79.5 °F - 73.4 °F 81% 30.04 in 10.0 mi Calm Calm - N/A   Clear
9:35 PM 79.2 °F - 73.4 °F 82% 30.04 in 10.0 mi Calm Calm - N/A   Clear
9:55 PM 79.3 °F - 73.4 °F 82% 30.05 in 10.0 mi Calm Calm - N/A   Clear
10:15 PM 78.1 °F - 74.1 °F 88% 30.05 in 10.0 mi North 3.5 mph - N/A   Clear
10:35 PM 77.2 °F - 74.3 °F 91% 30.05 in 10.0 mi Calm Calm - N/A   Clear
10:55 PM 77.4 °F - 74.3 °F 90% 30.06 in 10.0 mi Calm Calm - N/A   Clear
11:15 PM 76.6 °F - 74.3 °F 92% 30.06 in 10.0 mi Calm Calm - N/A   Clear
11:35 PM 77.2 °F - 74.7 °F 92% 30.06 in 10.0 mi Calm Calm - N/A   Clear
11:55 PM 76.1 °F - 74.3 °F 94% 30.06 in 10.0 mi Calm Calm - N/A   Clear